Regional Weather Roundup
Issued by NWS

Home | Current Version | Previous Version | Text Only | Print | Product List | Glossary Off
Versions: 1 2 3 4 5 6 7 8 9 10 11 12 13 14 15 16 17 18 19 20 21 22 23 24 25 26 27 28 29 30 31 32 33 34 35 36 37 38 39 40 41 42 43 44 45 46 47 48 49 50

000
ASUS45 KBOU 170307
RWRCO

WEATHER ROUNDUP FOR COLORADO
NATIONAL WEATHER SERVICE DENVER/BOULDER CO
800 PM MST MON JAN 16 2017

NOTE: "FAIR" INDICATES FEW OR NO CLOUDS BELOW 12000 FEET WITH NO
SIGNIFICANT WEATHER AND/OR OBSTRUCTIONS TO VISIBILITY.

COZ001>005-013-030-031-170400-
...NORTHWEST COLORADO...

CITY           SKY/WX    TMP DP  RH WIND       PRES   REMARKS
CRAIG          CLOUDY    17  12  80 CALM      30.20R
HAYDEN         CLOUDY    16  10  79 CALM      30.17R
MEEKER         FAIR      17  11  77 CALM      30.15R
MOUNT WERNER   NOT AVBL
STEAMBOAT SPGS CLOUDY    18  16  89 CALM      30.15R
WALDEN           N/A     14  12  92 N3        30.11S
$$

COZ006>008-011-170400-
...WEST CENTRAL VALLEYS...

CITY           SKY/WX    TMP DP  RH WIND       PRES   REMARKS
GRAND JUNCTION FAIR      34  22  61 CALM      30.10S
MONTROSE       CLOUDY    32  26  78 S8        30.12S WCI  25
EAGLE          CLEAR     25  19  80 CALM      30.11R
RIFLE          FAIR      27  20  75 SW6       30.13R WCI  20
DELTA          CLOUDY    38  29  68 CALM      30.11S
NUCLA          CLOUDY    34  21  60 NW3       30.10S
$$

COZ017>023-064>068-170400-
...SOUTHWEST COLORADO...

CITY           SKY/WX    TMP DP  RH WIND       PRES   REMARKS
DURANGO        LGT SNOW  32  29  88 E5        30.05R FOG     WCI  27
CORTEZ         CLOUDY    34  33  96 CALM      30.05R
PAGOSA SPRINGS LGT SNOW  32  32 100 CALM      30.06R
TELLURIDE      LGT SNOW  25  24  97 CALM      30.06R
WOLF CREEK PAS CLOUDY    19  19 100 NW5       30.12R WCI  13
$$

COZ009-010-012-014-032>034-037-058>063-170400-
...CENTRAL COLORADO...

CITY           SKY/WX    TMP DP  RH WIND       PRES   REMARKS
ASPEN          CLOUDY    23  20  88 CALM      30.06S
BUENA VISTA    LGT SNOW  30  29  96 E3        30.09S
COPPER MTN     FLURRIES  23  18  80 MISG      30.08F
BERTHOUD PASS  NOT AVBL
COTTONWOOD PAS LGT SNOW  28  27  93 CALM      30.08S
GUNNISON       MIX PCPN  24  23  96 S5        30.07S WCI  18
KREMMLING      FAIR      19  16  86 CALM      30.11S
LEADVILLE      LGT SNOW  23  21  92 S5        30.06S FOG     WCI  17
MONARCH PASS   CLOUDY    19  18  93 MISG      30.17S
SALIDA         CLOUDY    32  30  94 SE7       30.17R WCI  26
SUNLIGHT       CLOUDY    19  19 100 NE6       30.11S FOG     WCI  11
WILKERSON PASS LGT SNOW N/A N/A N/A CALM      30.12S
$$

COZ069>075-170400-
...SAN LUIS VALLEY/SANGRE DE CRISTO MOUNTAINS...

CITY           SKY/WX    TMP DP  RH WIND       PRES   REMARKS
ALAMOSA        LGT SNOW  28  26  92 E5        30.06R FOG     WCI  23
LA VETA PASS   LGT SNOW  21  18  86 SW16      30.08S VSB 1   WCI   7
SAGUACHE       LGT SNOW  32  32 100 CALM      30.07S
$$

COZ035-036-038>040-170400-
...NORTHERN COLORADO FRONT RANGE...

CITY           SKY/WX    TMP DP  RH WIND       PRES   REMARKS
DENVER INTL AP CLOUDY    33  27  78 SW8       30.11S WCI  26
DMNS CITY PARK   N/A     34  27  76 SE6       30.12S WCI  28
AURORA         CLOUDY    31  28  87 S3        30.11F
FRONT RANGE AP MOCLDY    34  28  80 SW7       30.12S WCI  28
ERIE MUNI ARPT CLOUDY    32  29  90 CALM      30.11F
BOULDER MUN AP CLOUDY    34  32  93 CALM      30.11S
CENTENNIAL     CLOUDY    30  24  78 S3        30.11S
BROOMFIELD     CLOUDY    32  25  74 W3        30.12S
FORT COLLINS   FAIR      34  27  75 S3        30.12S
LONGMONT       CLOUDY    35  31  88 W3        30.13S
$$

COZ041-046-047-076>085-087-088-170400-
...PIKES PEAK/PALMER DIVIDE AND SOUTHERN FOOTHILLS...

CITY           SKY/WX    TMP DP  RH WIND       PRES   REMARKS
COLO. SPRINGS  FLURRIES  32  23  69 N7        30.12S WCI  26
A. F. ACADEMY  CLOUDY    28  23  80 VRB7      30.10S WCI  21
SCHRIEVER AFB  NOT AVBL
ELLICOTT       CLOUDY   N/A N/A N/A N9        30.10S
FALCON         CLOUDY    30  20  67 NW7       30.11F WCI  23
FORT CARSON    CLOUDY    32  27  80 N6        30.13S WCI  26
LIMON          CLOUDY    30  26  85 NW7       30.10S WCI  23
MONUMENT HILL  CLOUDY    27  21  80 W6        30.11F WCI  20
TRINIDAD       LGT SNOW  31  29  92 NW7       30.14R FOG     WCI  24
$$

COZ042>045-048>051-090-091-170400-
...NORTHEAST COLORADO...

CITY           SKY/WX    TMP DP  RH WIND       PRES   REMARKS
GREELEY ARPT   CLOUDY    32  25  75 NE3       30.12S
AKRON          CLOUDY    33  20  58 NW8       30.09R WCI  26
BURLINGTON     CLOUDY    33  27  78 NW8       30.08S WCI  26
WRAY           NOT AVBL
STERLING       CLOUDY    34  25  69 N5        30.09S WCI  30
HOLYOKE        CLOUDY    36  27  69 NW9       30.09S
FORT MORGAN    CLOUDY    35  17  48 W3        30.12R
$$

COZ086-089-092>099-170400-
...SOUTHEAST COLORADO...

CITY           SKY/WX    TMP DP  RH WIND       PRES   REMARKS
PUEBLO         LGT SNOW  33  32  96 S3        30.15R FOG
LA JUNTA       LGT SNOW  33  32  96 NW7       30.14S FOG     WCI  27
LAMAR          CLOUDY    33  31  92 W10       30.11S WCI  25
SPRINGFIELD      N/A     31  30  96 N20       30.08R WCI  19
$$



USA.gov is the U.S. government's official web portal to all federal, state and local government web resources and services.